Location: Hard Labor Creek Observatory
(33.6704°N, 83.5946°W)
Time: 02:57:15
(UTC-04:00)

Hubble Space Telescope - Visible Passes

Search period start: 28 September 2020 00:00
Search period end: 08 October 2020 00:00
Orbit: 536 x 540 km, 28.5° (Epoch: 27 September)

Date Brightness Start Highest point End Pass type
(mag) Time Alt. Az. Time Alt. Az. Time Alt. Az.
28 Sep 3.6 04:55:43 13° ESE 04:55:43 13° ESE 04:56:24 10° ESE visible
28 Sep 1.6 06:31:03 17° WSW 06:33:50 39° S 06:37:42 10° ESE visible
29 Sep 3.9 04:45:39 11° ESE 04:45:39 11° ESE 04:45:47 10° ESE visible
29 Sep 1.5 06:20:59 23° SW 06:23:04 40° S 06:26:57 10° ESE visible
30 Sep 1.5 06:10:55 29° SW 06:12:18 40° S 06:16:10 10° ESE visible
01 Oct 1.5 06:00:52 36° SSW 06:01:32 38° S 06:05:23 10° ESE visible
02 Oct 1.6 05:50:51 36° S 05:50:51 36° S 05:54:34 10° ESE visible
03 Oct 2.1 05:40:52 30° SSE 05:40:52 30° SSE 05:43:43 10° SE visible
04 Oct 2.7 05:30:55 22° SSE 05:30:55 22° SSE 05:32:50 10° SE visible
04 Oct 3.0 07:07:54 10° SW 07:09:51 13° SSW 07:11:48 10° S visible
05 Oct 3.2 05:21:01 15° SE 05:21:01 15° SE 05:21:55 10° SE visible
05 Oct 3.1 06:58:20 10° SW 06:59:00 10° SSW 06:59:41 10° SSW visible
